Weather reports worldwide

Advertisment
Hyeres, France (7667): temperature & dewpoint: 10.07.2018 18:00:00 - 16.07.2018 18:00:00 (CEST)Hyeres, France (7667): temperature 5cm: 10.07.2018 18:00:00 - 16.07.2018 18:00:00 (CEST)Hyeres, France (7667): wind speed & gusts: 10.07.2018 18:00:00 - 16.07.2018 18:00:00 (CEST)Hyeres, France (7667): wind direction: 10.07.2018 18:00:00 - 16.07.2018 18:00:00 (CEST)Hyeres, France (7667): reduced air pressure: 10.07.2018 18:00:00 - 16.07.2018 18:00:00 (CEST)Hyeres, France (7667): visibility: 10.07.2018 18:00:00 - 16.07.2018 18:00:00 (CEST)Hyeres, France (7667): precipitation: 10.07.2018 18:00:00 - 16.07.2018 18:00:00 (CEST)
Date & Time tt [°C] td [°C] tt 5cm [°C] ff [km/h] ff [kn] fx [km/h] fx [kn] dd ppp [hPa] vv [km] rr [mm]
16.07.2018 18:00:00 18,1 17,1 17,0 8 4 12 6 NNW 1009,6 6 4,9
16.07.2018 17:00:00 17,6 16,3 16,6 0 0 25 14 N 1009,1 7 3,8
16.07.2018 16:00:00 17,3 16,5 16,3 12 7 28 15 N 1008,0 5 3,4
16.07.2018 15:00:00 17,3 16,3 15,8 15 8 81 44 SW 1010,5 1,2 16,2
16.07.2018 14:00:00 25,5 22,0 24,1 26 14 44 24 E 1008,6 19 0,0
16.07.2018 13:00:00 26,5 21,0 27,5 20 11 31 17 E 1009,7 20 -
16.07.2018 12:00:00 28,1 -1,9 29,1 19 10 31 17 E 1009,7 20 0,0
16.07.2018 11:00:00 26,6 21,6 28,2 20 11 35 19 E 1010,3 19 0,0
16.07.2018 10:00:00 25,3 21,2 24,5 18 10 28 15 E 1010,3 19 0,0
16.07.2018 09:00:00 23,4 19,3 22,4 7 4 10 6 NNE 1010,6 18 0,0
16.07.2018 08:00:00 21,5 18,7 19,7 3 2 9 5 NE 1010,7 14 0,0
16.07.2018 07:00:00 20,6 18,2 18,1 3 2 14 8 ENE 1011,3 14 0,0
16.07.2018 06:00:00 20,6 18,4 18,0 3 2 5 3 NNE 1012,4 11 0,0
16.07.2018 05:00:00 20,2 18,3 17,9 2 1 9 5 E 1012,1 11 0,0
16.07.2018 04:00:00 21,3 19,2 18,8 7 4 11 6 N 1012,7 10 0,0
16.07.2018 03:00:00 23,4 20,1 19,5 5 3 16 9 N 1013,3 18 0,0
16.07.2018 02:00:00 23,4 21,1 20,8 11 6 20 11 WSW 1013,9 17 0,0
16.07.2018 01:00:00 23,5 21,4 21,3 11 6 19 10 WSW 1013,3 16 0,0
16.07.2018 00:00:00 23,9 21,6 21,5 14 8 18 10 WSW 1013,1 11 0,0
15.07.2018 23:00:00 24,2 21,7 21,7 9 5 21 11 WSW 1013,2 15 0,0
15.07.2018 22:00:00 24,5 22,4 22,6 9 5 23 13 WSW 1013,5 14 0,0
15.07.2018 21:00:00 25,0 22,3 23,8 16 9 29 15 SW 1013,4 16 0,0
15.07.2018 20:00:00 25,8 22,5 26,5 19 11 30 16 WSW 1012,8 24 0,0
15.07.2018 19:00:00 26,4 22,7 30,1 17 9 32 17 SW 1013,1 22 0,0
15.07.2018 18:00:00 27,1 22,3 32,1 21 12 34 19 SW 1013,7 20 0,0
15.07.2018 17:00:00 28,4 20,4 34,4 23 12 37 20 SW 1014,0 20 0,0
15.07.2018 16:00:00 28,2 21,0 34,6 27 14 39 21 WSW 1014,2 19 0,0
15.07.2018 15:00:00 28,2 20,5 35,0 25 13 40 22 SW 1014,6 16 0,0
15.07.2018 14:00:00 28,9 19,0 36,1 23 13 37 20 SW 1014,6 18 0,0
15.07.2018 13:00:00 29,0 19,3 36,0 22 12 35 19 SW 1014,7 20 0,0
15.07.2018 12:00:00 28,9 17,4 36,2 24 13 35 19 SW 1014,4 30 0,0
15.07.2018 11:00:00 30,4 17,8 39,0 6 4 19 10 NW 1014,4 20 0,0
15.07.2018 10:00:00 29,6 17,1 33,1 3 2 9 5 NW 1014,6 18 0,0
15.07.2018 09:00:00 26,5 17,3 30,1 2 1 7 4 SSW 1014,9 20 0,0
15.07.2018 08:00:00 23,3 17,3 20,9 2 1 16 9 N 1014,9 13 0,0
15.07.2018 07:00:00 20,9 17,3 16,1 3 1 8 5 N 1014,8 16 0,0
15.07.2018 06:00:00 18,3 16,1 14,4 4 2 8 4 NNW 1014,4 17 0,0
15.07.2018 05:00:00 18,4 15,8 14,6 0 0 8 4 N 1014,2 17 0,0
15.07.2018 04:00:00 19,0 16,4 14,9 2 1 9 5 NNW 1014,3 15 0,0
15.07.2018 03:00:00 19,1 15,6 15,2 4 2 7 4 NNE 1014,6 18 0,0
15.07.2018 02:00:00 19,8 15,9 15,9 5 3 8 4 NNE 1015,1 16 0,0
15.07.2018 01:00:00 20,6 16,2 16,2 4 2 8 4 NNE 1015,2 19 0,0
15.07.2018 00:00:00 21,5 17,3 17,3 2 1 8 4 NNE 1015,1 18 0,0
14.07.2018 23:00:00 23,0 18,7 18,1 3 2 7 4 N 1014,9 16 0,0
14.07.2018 22:00:00 24,4 20,5 20,0 2 1 7 4 NE 1014,5 16 0,0
14.07.2018 21:00:00 26,5 20,3 23,9 4 2 6 3 ESE 1014,0 19 0,0
14.07.2018 20:00:00 28,5 18,0 29,1 3 2 8 4 ENE 1014,0 34 0,0
14.07.2018 19:00:00 29,1 19,4 32,3 5 3 16 9 SE 1014,4 44 0,0
14.07.2018 18:00:00 30,0 16,1 36,5 9 5 18 10 SE 1014,9 28 0,0
14.07.2018 17:00:00 29,9 18,7 37,7 9 5 22 12 SSE 1015,1 23 0,0
14.07.2018 16:00:00 29,3 18,1 38,2 11 6 22 12 SSE 1015,6 18 0,0
14.07.2018 15:00:00 29,0 18,5 36,8 14 7 28 15 S 1016,0 18 0,0
14.07.2018 14:00:00 28,3 21,3 35,2 16 9 34 18 SE 1016,2 16 0,0
14.07.2018 13:00:00 27,5 21,3 35,1 22 12 34 18 SE 1015,8 16 0,0
14.07.2018 12:00:00 28,0 21,8 28,3 22 12 32 17 ESE 1015,5 19 0,0
14.07.2018 11:00:00 27,1 21,6 27,7 16 9 33 18 E 1015,8 20 0,0
14.07.2018 10:00:00 26,5 20,8 26,2 14 8 21 11 E 1016,2 20 0,0
14.07.2018 09:00:00 25,2 20,2 22,9 8 4 16 9 E 1016,2 19 0,0
14.07.2018 08:00:00 22,2 19,4 19,8 3 2 10 5 NE 1016,2 14 0,0
14.07.2018 07:00:00 20,5 19,0 17,6 5 3 9 5 NNE 1016,2 12 0,0
14.07.2018 06:00:00 20,3 18,6 17,3 4 2 8 4 NNE 1016,4 14 0,0
14.07.2018 05:00:00 21,7 19,6 18,7 4 2 6 4 N 1016,9 16 0,0
14.07.2018 04:00:00 22,6 19,9 19,5 2 1 15 8 NNW 1016,8 18 0,0
14.07.2018 03:00:00 22,3 20,0 21,1 11 6 14 7 ENE 1016,4 14 0,0
14.07.2018 02:00:00 22,9 21,0 20,8 7 4 13 7 NNW 1016,8 12 0,0
14.07.2018 01:00:00 22,7 21,2 20,1 2 1 11 6 NNW 1017,5 11 0,0
14.07.2018 00:00:00 22,6 20,9 19,0 3 2 10 6 NNE 1017,5 8 0,0
13.07.2018 23:00:00 24,1 21,8 22,2 4 2 12 7 SE 1017,4 15 0,0
13.07.2018 22:00:00 24,4 21,5 20,0 7 4 9 5 S 1016,9 15 0,0
13.07.2018 21:00:00 24,9 21,2 22,5 5 3 14 7 E 1016,1 19 0,0
13.07.2018 20:00:00 25,5 21,2 25,9 11 6 20 11 S 1016,0 28 0,0
13.07.2018 19:00:00 25,9 20,7 26,9 14 8 30 16 SSW 1015,8 25 0,0
13.07.2018 18:00:00 26,2 21,4 28,9 16 9 28 15 SW 1016,8 19 0,0
13.07.2018 17:00:00 27,2 21,0 32,0 16 9 23 12 SW 1017,0 20 0,0
13.07.2018 16:00:00 28,0 19,2 36,1 15 8 26 14 SSW 1017,5 20 0,0
13.07.2018 15:00:00 28,0 20,0 36,7 16 9 29 16 SSW 1017,5 20 0,0
13.07.2018 14:00:00 28,5 20,5 38,2 18 10 24 13 SSE 1017,2 20 0,0
13.07.2018 13:00:00 28,5 18,0 36,9 15 8 21 11 SSE 1017,3 20 0,0
13.07.2018 12:00:00 27,5 18,8 35,7 11 6 19 10 ESE 1017,4 20 0,0
13.07.2018 11:00:00 27,4 15,7 35,7 11 6 19 10 SE 1017,5 35 0,0
13.07.2018 10:00:00 27,2 14,6 32,9 6 4 11 6 SSE 1017,4 20 0,0
13.07.2018 09:00:00 25,6 14,1 29,1 3 1 8 4 E 1017,3 20 0,0
13.07.2018 08:00:00 22,8 14,4 16,4 0 0 4 2 N 1016,9 30 0,0
13.07.2018 07:00:00 16,9 12,8 12,5 2 1 9 5 N 1016,3 24 0,0
13.07.2018 06:00:00 15,6 12,5 12,3 4 2 10 5 N 1016,2 18 0,0
13.07.2018 05:00:00 16,1 12,5 12,7 5 3 10 5 NE 1015,8 29 0,0
13.07.2018 04:00:00 17,8 13,9 12,7 6 3 11 6 NE 1015,8 20 0,0
13.07.2018 03:00:00 17,3 12,6 12,8 3 2 6 3 NNE 1015,9 35 0,0
13.07.2018 02:00:00 17,3 12,6 13,5 5 3 9 5 NE 1015,8 33 0,0
13.07.2018 01:00:00 20,8 14,0 13,5 3 2 6 3 NNE 1015,8 28 0,0
13.07.2018 00:00:00 20,7 13,6 13,8 0 0 5 3 N 1015,6 39 0,0
12.07.2018 23:00:00 23,1 13,3 17,5 2 1 10 5 ESE 1015,5 42 0,0
12.07.2018 22:00:00 24,8 13,7 22,4 12 6 30 16 WNW 1014,8 52 0,0
12.07.2018 21:00:00 26,3 12,7 24,4 19 11 40 22 W 1014,2 56 0,0
12.07.2018 20:00:00 26,6 15,3 26,8 31 17 43 23 WSW 1014,1 22 0,0
12.07.2018 19:00:00 26,1 17,5 28,5 30 16 48 26 SW 1013,8 18 0,0
12.07.2018 18:00:00 27,0 16,6 31,0 25 14 39 21 SW 1013,7 19 0,0
12.07.2018 17:00:00 28,3 15,6 34,4 26 14 39 21 SW 1014,0 19 0,0
12.07.2018 16:00:00 28,8 15,3 34,1 28 15 41 22 SW 1014,2 19 0,0
12.07.2018 15:00:00 27,8 17,3 29,4 30 16 42 23 SW 1014,2 20 0,0
12.07.2018 14:00:00 27,2 16,2 30,4 27 14 38 20 SW 1014,4 19 0,0
12.07.2018 13:00:00 26,1 16,6 34,6 17 9 26 14 SSW 1014,9 29 0,0
12.07.2018 12:00:00 27,2 12,8 36,2 16 8 24 13 SW 1014,9 36 0,0
12.07.2018 11:00:00 27,5 12,7 36,0 11 6 19 11 SE 1014,6 19 0,0
12.07.2018 10:00:00 26,9 13,6 35,1 6 4 11 6 SW 1014,5 20 0,0
12.07.2018 09:00:00 25,1 11,6 18,1 4 2 8 5 N 1014,1 18 0,0
12.07.2018 08:00:00 18,9 12,4 17,4 5 3 10 5 NNE 1013,7 20 0,0
12.07.2018 07:00:00 18,5 11,6 13,0 6 3 13 7 NNW 1013,5 33 0,0
12.07.2018 06:00:00 15,2 11,0 11,6 9 5 11 6 N 1013,3 40 0,0
12.07.2018 05:00:00 15,9 11,1 11,6 7 4 9 5 NW 1012,9 55 0,0
12.07.2018 04:00:00 17,1 10,9 12,3 9 5 12 6 N 1012,5 59 0,0
12.07.2018 03:00:00 16,0 11,8 11,7 7 4 10 5 NNE 1012,6 55 0,0
12.07.2018 02:00:00 18,0 12,2 13,3 4 2 10 5 NNE 1012,9 45 0,0
12.07.2018 01:00:00 22,2 11,6 17,4 5 3 13 7 NNW 1013,0 58 0,0
12.07.2018 00:00:00 24,3 11,9 21,6 11 6 34 18 WNW 1012,8 60 0,0
11.07.2018 23:00:00 24,1 16,1 21,9 22 12 39 21 W 1012,3 49 0,0
11.07.2018 22:00:00 24,2 16,2 22,2 23 12 44 24 W 1011,6 48 0,0
11.07.2018 21:00:00 24,3 15,5 22,6 25 13 39 21 WSW 1010,9 44 0,0
11.07.2018 20:00:00 26,8 13,9 26,8 25 13 37 20 W 1010,5 26 0,0
11.07.2018 19:00:00 26,9 15,6 29,7 28 15 42 23 WSW 1010,3 20 0,0
11.07.2018 18:00:00 28,5 11,5 32,2 28 15 51 27 W 1010,0 15 0,0
11.07.2018 17:00:00 27,7 15,0 32,8 36 20 50 27 WSW 1010,0 13 0,0
11.07.2018 16:00:00 28,4 12,7 32,8 39 21 58 32 WSW 1009,8 15 0,0
11.07.2018 15:00:00 28,9 12,3 33,6 41 22 56 31 WSW 1009,8 17 0,0
11.07.2018 14:00:00 29,2 12,2 34,8 36 19 48 26 SW 1009,7 20 0,0
11.07.2018 13:00:00 28,4 12,7 33,5 36 19 48 26 SW 1009,8 19 0,0
11.07.2018 12:00:00 27,4 14,1 33,4 32 18 42 23 WSW 1010,0 19 0,0
11.07.2018 11:00:00 28,1 13,2 33,9 16 9 26 14 WSW 1009,9 20 0,0
11.07.2018 10:00:00 28,1 13,2 33,9 5 3 13 7 NNW 1010,2 20 0,0
11.07.2018 09:00:00 26,9 11,8 27,6 8 4 16 9 NW 1010,1 28 0,0
11.07.2018 08:00:00 25,0 11,5 18,2 12 6 16 9 WNW 1009,9 27 0,0
11.07.2018 07:00:00 20,9 12,3 11,9 4 2 16 9 NNE 1009,9 28 0,0
11.07.2018 06:00:00 19,0 11,3 11,5 6 3 9 5 NNE 1009,6 53 0,0
11.07.2018 05:00:00 21,1 11,1 12,5 8 4 18 10 WNW 1009,8 57 0,0
11.07.2018 04:00:00 24,2 10,5 20,7 13 7 20 11 WSW 1009,7 60 0,0
11.07.2018 03:00:00 25,9 10,5 21,2 17 9 24 13 WSW 1009,9 60 0,0
11.07.2018 02:00:00 26,1 10,7 16,7 12 6 16 9 WNW 1010,2 60 0,0
11.07.2018 01:00:00 24,2 15,7 18,2 9 5 14 7 SW 1010,6 44 0,0
11.07.2018 00:00:00 26,1 15,5 21,7 11 6 16 9 W 1010,8 60 0,0
10.07.2018 23:00:00 25,9 17,0 22,5 7 4 27 15 WNW 1011,0 45 0,0
10.07.2018 22:00:00 27,6 15,6 24,6 20 11 35 19 WSW 1010,9 49 0,0
10.07.2018 21:00:00 27,7 16,0 24,8 24 13 42 23 WSW 1010,4 48 0,0
10.07.2018 20:00:00 28,7 15,6 26,8 34 18 61 33 W 1010,3 19 0,0
10.07.2018 19:00:00 29,2 15,3 29,4 36 19 57 31 W 1010,0 15 0,0
10.07.2018 18:00:00 29,7 15,0 31,8 36 19 57 31 W 1010,1 15 0,0

tt = temperature
td = dewpoint
tt 5cm = temperature 5cm
ff = wind speed
fx = gusts
dd = wind direction
ppp = reduced air pressure
vv = visibility
rr = precipitation

Next stations